Time,TemperatureF,DewpointF,PressureIn,WindDirection,WindDirectionDegrees,WindSpeedMPH,WindSpeedGustMPH,Humidity,HourlyPrecipIn,Conditions,Clouds,dailyrainin,SoftwareType,DateUTC
2013-04-04 00:00:00,80.2,78.3,29.88,ESE,106,7.0,12.0,94,0.00,,,0.00,WeatherDisplay:10.37,2013-04-04 06:00:00,
2013-04-04 00:15:00,80.1,78.3,29.88,ESE,105,7.0,12.0,94,0.00,,,0.00,WeatherDisplay:10.37,2013-04-04 06:15:00,
2013-04-04 00:30:00,80.1,78.5,29.87,ESE,105,9.0,14.0,95,0.00,,,0.00,WeatherDisplay:10.37,2013-04-04 06:30:00,
2013-04-04 00:45:00,80.1,78.2,29.87,ESE,106,9.0,14.0,94,0.00,,,0.00,WeatherDisplay:10.37,2013-04-04 06:45:00,
2013-04-04 01:00:00,80.1,78.5,29.86,ESE,108,10.0,15.0,95,0.00,,,0.00,WeatherDisplay:10.37,2013-04-04 07:00:00,
2013-04-04 01:15:00,80.0,78.4,29.86,East,101,7.0,12.0,95,0.00,,,0.00,WeatherDisplay:10.37,2013-04-04 07:15:00,
2013-04-04 01:30:00,80.0,78.5,29.86,ESE,106,7.0,13.0,95,0.00,,,0.00,WeatherDisplay:10.37,2013-04-04 07:30:00,
2013-04-04 01:45:00,80.0,78.4,29.85,East,101,7.0,12.0,95,0.00,,,0.00,WeatherDisplay:10.37,2013-04-04 07:45:00,
2013-04-04 02:00:00,80.1,78.5,29.85,ESE,103,5.0,10.0,95,0.00,,,0.00,WeatherDisplay:10.37,2013-04-04 08:00:00,
2013-04-04 02:15:00,80.0,78.4,29.84,ESE,105,7.0,12.0,95,0.00,,,0.00,WeatherDisplay:10.37,2013-04-04 08:15:00,
2013-04-04 02:30:00,80.1,78.5,29.84,ESE,108,8.0,12.0,95,0.00,,,0.00,WeatherDisplay:10.37,2013-04-04 08:30:00,
2013-04-04 02:45:00,80.0,78.4,29.84,ESE,106,8.0,13.0,95,0.00,,,0.00,WeatherDisplay:10.37,2013-04-04 08:45:00,
2013-04-04 03:00:00,80.0,78.4,29.84,ESE,109,10.0,13.0,95,0.00,,,0.00,WeatherDisplay:10.37,2013-04-04 09:00:00,
2013-04-04 03:15:00,80.0,78.4,29.83,ESE,110,10.0,13.0,95,0.00,,,0.00,WeatherDisplay:10.37,2013-04-04 09:15:00,
2013-04-04 03:30:00,80.0,78.5,29.83,ESE,106,6.0,13.0,95,0.00,,,0.00,WeatherDisplay:10.37,2013-04-04 09:30:00,
2013-04-04 04:00:00,80.1,78.5,29.83,ESE,109,8.0,12.0,95,0.00,,,0.00,WeatherDisplay:10.37,2013-04-04 10:00:00,
2013-04-04 04:15:00,80.0,78.4,29.83,ESE,107,9.0,13.0,95,0.00,,,0.00,WeatherDisplay:10.37,2013-04-04 10:15:00,
2013-04-04 04:30:00,80.1,78.5,29.84,ESE,109,10.0,14.0,95,0.00,,,0.00,WeatherDisplay:10.37,2013-04-04 10:30:00,
2013-04-04 04:45:00,80.0,78.4,29.84,ESE,110,10.0,15.0,95,0.00,,,0.00,WeatherDisplay:10.37,2013-04-04 10:45:00,
2013-04-04 05:00:00,80.1,78.5,29.85,ESE,111,10.0,14.0,95,0.00,,,0.00,WeatherDisplay:10.37,2013-04-04 11:00:00,
2013-04-04 05:15:00,80.1,78.5,29.86,ESE,109,10.0,15.0,95,0.00,,,0.00,WeatherDisplay:10.37,2013-04-04 11:15:00,
2013-04-04 05:30:00,80.0,78.5,29.86,ESE,108,9.0,15.0,95,0.00,,,0.00,WeatherDisplay:10.37,2013-04-04 11:30:00,
2013-04-04 05:45:00,80.0,78.4,29.86,ESE,108,9.0,15.0,95,0.00,,,0.00,WeatherDisplay:10.37,2013-04-04 11:45:00,
2013-04-04 06:00:00,80.1,78.5,29.87,ESE,107,10.0,15.0,95,0.00,,,0.00,WeatherDisplay:10.37,2013-04-04 12:00:00,
2013-04-04 06:15:00,80.1,78.5,29.87,ESE,107,9.0,14.0,95,0.00,,,0.00,WeatherDisplay:10.37,2013-04-04 12:15:00,
2013-04-04 06:30:00,80.2,78.6,29.87,ESE,110,9.0,14.0,95,0.00,,,0.00,WeatherDisplay:10.37,2013-04-04 12:30:00,
2013-04-04 06:45:00,80.3,78.7,29.88,ESE,109,9.0,14.0,95,0.00,,,0.00,WeatherDisplay:10.37,2013-04-04 12:45:00,
2013-04-04 07:00:00,80.4,78.8,29.89,ESE,108,9.0,14.0,95,0.00,,,0.00,WeatherDisplay:10.37,2013-04-04 13:00:00,
2013-04-04 07:15:00,81.2,79.3,29.89,ESE,108,8.0,13.0,94,0.00,,,0.00,WeatherDisplay:10.37,2013-04-04 13:15:00,
2013-04-04 07:30:00,81.3,79.1,29.90,ESE,107,12.0,15.0,93,0.00,,,0.00,WeatherDisplay:10.37,2013-04-04 13:30:00,
2013-04-04 07:45:00,81.7,79.1,29.91,ESE,106,8.0,13.0,92,0.00,,,0.00,WeatherDisplay:10.37,2013-04-04 13:45:00,
2013-04-04 08:00:00,81.9,79.3,29.91,ESE,107,9.0,12.0,92,0.00,,,0.00,WeatherDisplay:10.37,2013-04-04 14:00:00,
2013-04-04 08:15:00,82.0,79.1,29.92,ESE,109,10.0,14.0,91,0.00,,,0.00,WeatherDisplay:10.37,2013-04-04 14:15:00,
2013-04-04 08:30:00,82.8,79.5,29.92,ESE,107,9.0,13.0,90,0.00,,,0.00,WeatherDisplay:10.37,2013-04-04 14:30:00,
2013-04-04 08:45:00,82.8,79.6,29.93,ESE,111,7.0,13.0,90,0.00,,,0.00,WeatherDisplay:10.37,2013-04-04 14:45:00,
2013-04-04 09:00:00,82.9,79.4,29.93,ESE,109,10.0,14.0,89,0.00,,,0.00,WeatherDisplay:10.37,2013-04-04 15:00:00,
2013-04-04 09:15:00,82.9,79.3,29.93,ESE,112,12.0,14.0,89,0.00,,,0.00,WeatherDisplay:10.37,2013-04-04 15:15:00,
2013-04-04 09:30:00,83.3,79.4,29.93,ESE,110,10.0,13.0,88,0.00,,,0.00,WeatherDisplay:10.37,2013-04-04 15:30:00,
2013-04-04 09:45:00,83.6,79.7,29.93,ESE,113,12.0,14.0,88,0.00,,,0.00,WeatherDisplay:10.37,2013-04-04 15:45:00,
2013-04-04 10:15:00,83.4,79.5,29.93,ESE,111,10.0,14.0,88,0.00,,,0.00,WeatherDisplay:10.37,2013-04-04 16:15:00,
2013-04-04 10:30:00,83.4,79.5,29.93,ESE,111,10.0,13.0,88,0.00,,,0.00,WeatherDisplay:10.37,2013-04-04 16:30:00,
2013-04-04 10:45:00,83.5,79.6,29.92,ESE,113,8.0,12.0,88,0.00,,,0.00,WeatherDisplay:10.37,2013-04-04 16:45:00,
2013-04-04 11:00:00,83.8,79.9,29.92,ESE,112,9.0,12.0,88,0.00,,,0.00,WeatherDisplay:10.37,2013-04-04 17:00:00,
2013-04-04 11:15:00,83.8,79.9,29.91,ESE,114,8.0,12.0,88,0.00,,,0.00,WeatherDisplay:10.37,2013-04-04 17:15:00,
2013-04-04 11:30:00,84.3,80.4,29.91,ESE,112,7.0,12.0,88,0.00,,,0.00,WeatherDisplay:10.37,2013-04-04 17:30:00,
2013-04-04 11:45:00,84.6,80.3,29.90,ESE,110,8.0,10.0,87,0.00,,,0.00,WeatherDisplay:10.37,2013-04-04 17:45:00,
2013-04-04 12:00:00,84.5,79.8,29.90,ESE,110,8.0,12.0,86,0.00,,,0.00,WeatherDisplay:10.37,2013-04-04 18:00:00,
2013-04-04 12:15:00,85.0,80.3,29.89,ESE,109,6.0,10.0,86,0.00,,,0.00,WeatherDisplay:10.37,2013-04-04 18:15:00,
2013-04-04 12:30:00,84.6,79.9,29.88,ESE,111,8.0,10.0,86,0.00,,,0.00,WeatherDisplay:10.37,2013-04-04 18:30:00,
2013-04-04 12:45:00,84.3,79.7,29.87,ESE,108,7.0,10.0,86,0.00,,,0.00,WeatherDisplay:10.37,2013-04-04 18:45:00,
2013-04-04 13:00:00,84.9,80.2,29.87,ESE,107,7.0,9.0,86,0.00,,,0.00,WeatherDisplay:10.37,2013-04-04 19:00:00,
2013-04-04 13:15:00,85.2,80.2,29.87,East,97,3.0,9.0,85,0.00,,,0.00,WeatherDisplay:10.37,2013-04-04 19:15:00,
2013-04-04 13:30:00,85.2,79.8,29.87,East,88,3.0,7.0,84,0.00,CLR,,0.00,WeatherDisplay:10.37,2013-04-04 19:30:00,
2013-04-04 13:45:00,85.2,80.2,29.87,East,101,3.0,8.0,85,0.00,,,0.00,WeatherDisplay:10.37,2013-04-04 19:45:00,
2013-04-04 14:00:00,84.9,79.2,29.87,East,88,1.0,5.0,83,0.00,CLR,,0.00,WeatherDisplay:10.37,2013-04-04 20:00:00,
2013-04-04 14:15:00,85.5,80.1,29.87,East,88,3.0,5.0,84,0.00,CLR,,0.00,WeatherDisplay:10.37,2013-04-04 20:15:00,
2013-04-04 14:30:00,86.2,80.1,29.86,East,89,2.0,5.0,82,0.00,CLR,,0.00,WeatherDisplay:10.37,2013-04-04 20:30:00,
2013-04-04 14:45:00,86.5,80.3,29.86,ENE,74,3.0,6.0,82,0.00,CLR,,0.00,WeatherDisplay:10.37,2013-04-04 20:45:00,
2013-04-04 15:00:00,86.3,80.1,29.85,ENE,74,3.0,7.0,82,0.00,CLR,,0.00,WeatherDisplay:10.37,2013-04-04 21:00:00,
2013-04-04 15:15:00,86.3,80.2,29.85,ENE,67,3.0,7.0,82,0.00,CLR,,0.00,WeatherDisplay:10.37,2013-04-04 21:15:00,
2013-04-04 15:30:00,86.3,80.2,29.85,ENE,61,3.0,8.0,82,0.00,CLR,,0.00,WeatherDisplay:10.37,2013-04-04 21:30:00,
2013-04-04 15:45:00,85.7,79.6,29.84,ENE,62,3.0,9.0,82,0.00,CLR,,0.00,WeatherDisplay:10.37,2013-04-04 21:45:00,
2013-04-04 16:15:00,85.0,79.2,29.84,ENE,67,5.0,10.0,83,0.00,CLR,,0.00,WeatherDisplay:10.37,2013-04-04 22:15:00,
2013-04-04 16:26:00,85.0,79.3,29.85,ENE,60,3.0,8.0,83,0.00,CLR,,0.00,WeatherDisplay:10.37,2013-04-04 22:26:00,
2013-04-04 16:45:00,84.2,78.8,29.84,ENE,63,3.0,10.0,84,0.00,CLR,,0.00,WeatherDisplay:10.37,2013-04-04 22:45:00,
2013-04-04 17:00:00,84.2,78.8,29.84,ENE,65,6.0,12.0,84,0.00,CLR,,0.00,WeatherDisplay:10.37,2013-04-04 23:00:00,
2013-04-04 17:15:00,83.8,78.8,29.84,ENE,69,7.0,12.0,85,0.00,,,0.00,WeatherDisplay:10.37,2013-04-04 23:15:00,
2013-04-04 17:30:00,83.3,78.3,29.84,ENE,72,8.0,12.0,85,0.00,,,0.00,WeatherDisplay:10.37,2013-04-04 23:30:00,
2013-04-04 17:45:00,82.7,78.5,29.83,ENE,74,9.0,13.0,87,0.00,,,0.00,WeatherDisplay:10.37,2013-04-04 23:45:00,
2013-04-04 18:00:00,82.6,78.3,29.83,ENE,71,7.0,13.0,87,0.00,,,0.00,WeatherDisplay:10.37,2013-04-05 00:00:00,
2013-04-04 18:15:00,82.1,78.2,29.82,ENE,77,10.0,13.0,88,0.00,,,0.00,WeatherDisplay:10.37,2013-04-05 00:15:00,
2013-04-04 18:30:00,81.8,78.2,29.83,East,83,10.0,15.0,89,0.00,,,0.00,WeatherDisplay:10.37,2013-04-05 00:30:00,
2013-04-04 18:45:00,81.8,78.6,29.84,ENE,76,7.0,14.0,90,0.00,,,0.00,WeatherDisplay:10.37,2013-04-05 00:45:00,
2013-04-04 19:00:00,81.8,78.6,29.86,ENE,76,7.0,12.0,90,0.00,,,0.00,WeatherDisplay:10.37,2013-04-05 01:00:00,
2013-04-04 19:15:00,81.9,78.7,29.86,ENE,71,7.0,12.0,90,0.00,,,0.00,WeatherDisplay:10.37,2013-04-05 01:15:00,
2013-04-04 19:30:00,81.7,78.8,29.86,ENE,77,8.0,16.0,91,0.00,,,0.00,WeatherDisplay:10.37,2013-04-05 01:30:00,
2013-04-04 19:45:00,81.6,79.0,29.88,East,79,9.0,17.0,92,0.00,,,0.00,WeatherDisplay:10.37,2013-04-05 01:45:00,
2013-04-04 20:00:00,81.7,79.1,29.90,ENE,72,7.0,14.0,92,0.00,,,0.00,WeatherDisplay:10.37,2013-04-05 02:00:00,
2013-04-04 20:15:00,81.5,78.9,29.89,East,82,9.0,15.0,92,0.00,,,0.00,WeatherDisplay:10.37,2013-04-05 02:15:00,
2013-04-04 20:30:00,81.5,79.3,29.90,East,88,5.0,14.0,93,0.00,,,0.00,WeatherDisplay:10.37,2013-04-05 02:30:00,
2013-04-04 20:45:00,81.6,79.4,29.91,ESE,106,5.0,10.0,93,0.00,,,0.00,WeatherDisplay:10.37,2013-04-05 02:45:00,
2013-04-04 21:00:00,81.7,79.5,29.93,East,93,3.0,9.0,93,0.00,,,0.00,WeatherDisplay:10.37,2013-04-05 03:00:00,
2013-04-04 21:15:00,81.6,79.4,29.93,ESE,109,9.0,12.0,93,0.00,,,0.00,WeatherDisplay:10.37,2013-04-05 03:15:00,
2013-04-04 21:30:00,81.5,79.6,29.94,ESE,110,7.0,10.0,94,0.00,,,0.00,WeatherDisplay:10.37,2013-04-05 03:30:00,
2013-04-04 21:45:00,81.6,79.7,29.96,East,99,1.0,9.0,94,0.00,,,0.00,WeatherDisplay:10.37,2013-04-05 03:45:00,
2013-04-04 22:00:00,81.6,79.7,29.97,East,79,7.0,10.0,94,0.00,,,0.00,WeatherDisplay:10.37,2013-04-05 04:00:00,
2013-04-04 22:15:00,81.6,79.7,29.99,ESE,112,1.0,9.0,94,0.00,,,0.00,WeatherDisplay:10.37,2013-04-05 04:15:00,
2013-04-04 22:30:00,81.7,79.8,29.99,ESE,111,0.0,3.0,94,0.00,,,0.00,WeatherDisplay:10.37,2013-04-05 04:30:00,
2013-04-04 22:45:00,81.7,79.8,29.99,ESE,111,0.0,2.0,94,0.00,,,0.00,WeatherDisplay:10.37,2013-04-05 04:45:00,
2013-04-04 23:00:00,81.8,79.9,29.98,ESE,111,2.0,3.0,94,0.00,,,0.00,WeatherDisplay:10.37,2013-04-05 05:00:00,
2013-04-04 23:15:00,81.8,79.9,29.96,ESE,111,1.0,3.0,94,0.00,,,0.00,WeatherDisplay:10.37,2013-04-05 05:15:00,
2013-04-04 23:30:00,81.7,79.8,29.96,East,90,1.0,4.0,94,0.00,,,0.00,WeatherDisplay:10.37,2013-04-05 05:30:00,
2013-04-04 23:45:00,81.7,79.8,29.97,East,85,0.0,2.0,94,0.00,,,0.00,WeatherDisplay:10.37,2013-04-05 05:45:00,